FW1957 Weather Reports


Display with metric or nautical units.
time (UTC)temp
F
wind
direction
speed
MPH
gust
MPH
rain 1hr
in
rain 24hr
in
rain mn
in
humidity
%
barometer
mb
20260503231217 63 201 10.0 22.0 0.00 0.00 0.00 48 1013.0
20260503230705 63 223 11.0 22.0 0.00 0.00 0.00 48 1012.9
20260503230212 63 191 11.0 23.0 0.00 0.00 0.00 49 1013.0
20260503225716 63 159 11.0 23.0 0.00 0.00 0.00 48 1013.0
20260503224719 63 166 11.0 21.0 0.00 0.00 0.00 49 1013.1
20260503223712 63 188 12.0 21.0 0.00 0.00 0.00 49 1013.1
20260503222714 63 171 13.0 21.0 0.00 0.00 0.00 49 1013.1
20260503222212 64 166 12.0 24.0 0.00 0.00 0.00 49 1013.1
20260503221707 64 173 12.0 24.0 0.00 0.00 0.00 49 1013.1
20260503221214 64 173 13.0 24.0 0.00 0.00 0.00 49 1013.2
20260503220708 64 206 13.0 20.0 0.00 0.00 0.00 49 1013.2
20260503220217 64 184 12.0 20.0 0.00 0.00 0.00 49 1013.2
20260503215716 64 143 12.0 23.0 0.00 0.00 0.00 49 1013.2
20260503215216 64 197 12.0 23.0 0.00 0.00 0.00 49 1013.3
20260503214719 64 174 12.0 23.0 0.00 0.00 0.00 49 1013.3
20260503213716 64 165 12.0 21.0 0.00 0.00 0.00 49 1013.3
20260503213216 64 164 11.0 21.0 0.00 0.00 0.00 49 1013.3
20260503212716 64 182 11.0 20.0 0.00 0.00 0.00 49 1013.3
20260503212210 64 176 11.0 19.0 0.00 0.00 0.00 49 1013.4
20260503211711 63 212 11.0 19.0 0.00 0.00 0.00 50 1013.4
20260503211209 63 167 11.0 19.0 0.00 0.00 0.00 50 1013.5
20260503210219 62 192 9.0 14.0 0.00 0.00 0.00 52 1013.4
20260503205212 62 159 8.0 15.0 0.00 0.00 0.00 52 1013.6
20260503203719 63 152 9.0 12.0 0.00 0.00 0.00 51 1013.7
20260503203215 63 171 8.0 12.0 0.00 0.00 0.00 51 1013.7
20260503202708 63 156 8.0 12.0 0.00 0.00 0.00 51 1013.7
20260503202215 63 154 8.0 14.0 0.00 0.00 0.00 51 1013.7
20260503201713 63 164 9.0 15.0 0.00 0.00 0.00 51 1013.7
20260503201207 63 171 10.0 15.0 0.00 0.00 0.00 51 1013.7
20260503200706 63 164 10.0 15.0 0.00 0.00 0.00 51 1013.7
20260503200219 64 173 9.0 15.0 0.00 0.00 0.00 51 1013.7
20260503195718 64 190 9.0 15.0 0.00 0.00 0.00 51 1013.9
20260503195218 64 186 9.0 14.0 0.00 0.00 0.00 50 1013.9
20260503194718 64 170 9.0 15.0 0.00 0.00 0.00 50 1013.9
20260503194215 64 178 8.0 15.0 0.00 0.00 0.00 50 1014.0
20260503193710 64 175 8.0 16.0 0.00 0.00 0.00 49 1014.0
20260503193220 65 173 8.0 16.0 0.00 0.00 0.00 49 1013.9
20260503192715 65 166 8.0 16.0 0.00 0.00 0.00 49 1013.9
20260503192214 65 163 8.0 12.0 0.00 0.00 0.00 49 1013.9
20260503191706 65 145 7.0 11.0 0.00 0.00 0.00 48 1013.9
20260503191236 65 168 7.0 12.0 0.00 0.00 0.00 48 1013.7
20260503190707 65 161 7.0 12.0 0.00 0.00 0.00 48 1013.9
20260503190240 66 157 7.0 11.0 0.00 0.00 0.00 47 1013.7
20260503185207 66 156 6.0 12.0 0.00 0.00 0.00 46 1013.6
20260503184709 67 163 7.0 12.0 0.00 0.00 0.00 46 1013.5
20260503184210 67 148 7.0 12.0 0.00 0.00 0.00 46 1013.5
20260503183717 67 168 7.0 12.0 0.00 0.00 0.00 45 1013.5
20260503183213 68 142 7.0 15.0 0.00 0.00 0.00 45 1013.5
20260503182739 68 177 7.0 15.0 0.00 0.00 0.00 44 1013.5
20260503182215 69 139 8.0 15.0 0.00 0.00 0.00 44 1013.4
20260503181716 69 151 7.0 13.0 0.00 0.00 0.00 43 1013.4
20260503181213 69 152 7.0 13.0 0.00 0.00 0.00 43 1013.3
20260503180714 70 162 7.0 17.0 0.00 0.00 0.00 42 1013.3
20260503180209 70 148 8.0 17.0 0.00 0.00 0.00 41 1013.2
20260503175708 71 146 9.0 17.0 0.00 0.00 0.00 41 1013.2
20260503175211 71 164 8.0 13.0 0.00 0.00 0.00 40 1013.2
20260503174720 71 142 8.0 13.0 0.00 0.00 0.00 40 1013.2
20260503174206 72 181 8.0 17.0 0.00 0.00 0.00 39 1013.1
20260503173708 72 158 8.0 17.0 0.00 0.00 0.00 39 1013.1
20260503173211 72 174 9.0 17.0 0.00 0.00 0.00 38 1013.1
20260503172720 73 149 9.0 16.0 0.00 0.00 0.00 38 1013.0
20260503172216 73 140 9.0 16.0 0.00 0.00 0.00 38 1013.0
20260503171711 74 175 10.0 17.0 0.00 0.00 0.00 38 1013.0
20260503171217 74 182 10.0 17.0 0.00 0.00 0.00 37 1013.1
20260503170714 74 159 11.0 23.0 0.00 0.00 0.00 37 1013.0
20260503170212 74 169 11.0 23.0 0.00 0.00 0.00 36 1013.0
20260503150213 78 167 13.0 21.0 0.00 0.00 0.00 33 1013.4
20260503140209 80 193 12.0 19.0 0.00 0.00 0.00 33 1013.7
20260503130712 79 161 12.0 20.0 0.00 0.00 0.00 32 1014.5
20260503130210 79 165 11.0 20.0 0.00 0.00 0.00 33 1014.5
20260503120214 78 193 12.0 24.0 0.00 0.00 0.00 34 1015.2
20260503110718 77 171 13.0 23.0 0.00 0.00 0.00 34 1015.7
20260503100220 74 175 12.0 27.0 0.00 0.00 0.00 41 1016.2
20260503090205 72 128 14.0 23.0 0.00 0.00 0.00 45 1016.6
20260503081207 67 130 11.0 18.0 0.00 0.00 0.00 55 1016.9
20260503080714 66 112 11.0 18.0 0.00 0.00 0.00 57 1016.9
20260503080209 65 151 10.0 16.0 0.00 0.00 0.00 57 1017.0
20260503072211 61 157 8.0 14.0 0.00 0.00 0.00 63 1017.1
20260503070215 59 154 7.0 13.0 0.00 0.00 0.00 67 1017.2
20260503054706 51 176 6.0 12.0 0.00 0.00 0.00 77 1017.0
20260503054217 51 132 6.0 11.0 0.00 0.00 0.00 78 1017.0
20260503053707 51 111 6.0 11.0 0.00 0.00 0.00 78 1017.0
20260503053214 50 158 5.0 11.0 0.00 0.00 0.00 80 1016.9
20260503052705 50 155 5.0 10.0 0.00 0.00 0.00 81 1016.9
20260503051719 49 169 4.0 8.0 0.00 0.00 0.00 82 1017.0
20260503051207 48 181 3.0 8.0 0.00 0.00 0.00 83 1017.0
20260503050710 48 151 3.0 8.0 0.00 0.00 0.00 84 1017.0
20260503050656 47 182 4.0 7.0 0.00 0.00 0.00 84 1016.9
20260503050555 47 180 3.0 7.0 0.00 0.00 0.00 84 1017.0
20260503045217 47 157 3.0 6.0 0.00 0.00 0.00 84 1016.9
20260503044713 46 161 2.0 4.0 0.00 0.00 0.00 83 1017.0
20260503044206 45 225 3.0 4.0 0.00 0.00 0.00 83 1016.9
20260503043713 45 254 2.0 4.0 0.00 0.00 0.00 82 1016.9
20260503043217 45 256 1.0 2.0 0.00 0.00 0.00 81 1016.9
20260503042206 45 256 1.0 2.0 0.00 0.00 0.00 80 1016.8
20260503041708 45 256 1.0 2.0 0.00 0.00 0.00 79 1016.8
20260503041216 45 256 1.0 4.0 0.00 0.00 0.00 79 1016.7
20260503040708 45 256 2.0 4.0 0.00 0.00 0.00 78 1016.6
20260503040207 45 259 2.0 4.0 0.00 0.00 0.00 78 1016.5
20260503035752 45 257 2.0 5.0 0.00 0.00 0.00 77 1016.6
20260503034212 45 234 3.0 6.0 0.00 0.00 0.00 76 1016.5
20260503033716 45 252 4.0 5.0 0.00 0.00 0.00 76 1016.5
20260503033214 45 249 4.0 7.0 0.00 0.00 0.00 76 1016.5
20260503032719 46 242 4.0 8.0 0.00 0.00 0.00 76 1016.5
20260503032213 46 252 5.0 8.0 0.00 0.00 0.00 75 1016.5
20260503031717 46 251 6.0 8.0 0.00 0.00 0.00 75 1016.4
20260503031217 46 248 4.0 7.0 0.00 0.00 0.00 74 1016.5
20260503030712 46 249 3.0 4.0 0.00 0.00 0.00 74 1016.4
20260503030218 47 245 2.0 4.0 0.00 0.00 0.00 74 1016.4
20260503024712 47 206 2.0 8.0 0.00 0.00 0.00 73 1016.4
20260503024650 47 168 4.0 8.0 0.00 0.00 0.00 73 1016.4
20260503023708 47 135 5.0 7.0 0.00 0.00 0.00 72 1016.3
20260503023205 47 248 4.0 7.0 0.00 0.00 0.00 72 1016.2
20260503021218 48 250 4.0 6.0 0.00 0.00 0.00 71 1016.3
20260503020718 48 250 5.0 7.0 0.00 0.00 0.00 71 1016.2
20260503020212 49 242 5.0 7.0 0.00 0.00 0.00 71 1016.2
20260503015716 49 234 5.0 7.0 0.00 0.00 0.00 70 1016.2
20260503015211 49 233 5.0 6.0 0.00 0.00 0.00 70 1016.2
20260503014712 49 238 5.0 6.0 0.00 0.00 0.00 70 1016.3
20260503014216 49 241 4.0 6.0 0.00 0.00 0.00 70 1016.3
20260503013718 49 222 4.0 8.0 0.00 0.00 0.00 69 1016.3
20260503013217 49 228 4.0 8.0 0.00 0.00 0.00 70 1016.3
20260503012718 49 232 4.0 8.0 0.00 0.00 0.00 69 1016.3
20260503012220 49 228 4.0 8.0 0.00 0.00 0.00 70 1016.3
20260503011717 50 229 5.0 9.0 0.00 0.00 0.00 69 1016.3
20260503011210 50 220 5.0 9.0 0.00 0.00 0.00 68 1016.4
20260503010735 50 242 6.0 9.0 0.00 0.00 0.00 68 1016.4
20260503010220 50 229 6.0 9.0 0.00 0.00 0.00 68 1016.4
20260503005716 50 227 6.0 10.0 0.00 0.00 0.00 68 1016.4
20260503005213 50 235 7.0 10.0 0.00 0.00 0.00 68 1016.4
20260503004705 50 240 7.0 10.0 0.00 0.00 0.00 68 1016.4
20260503004208 51 238 7.0 9.0 0.00 0.00 0.00 67 1016.5
20260503003711 51 227 6.0 7.0 0.00 0.00 0.00 66 1016.4
20260503003214 51 228 5.0 9.0 0.00 0.00 0.00 65 1016.5
20260503002220 52 229 6.0 9.0 0.00 0.00 0.00 63 1016.5
20260503001713 52 229 6.0 9.0 0.00 0.00 0.00 63 1016.6
20260503001223 53 236 6.0 8.0 0.00 0.00 0.00 62 1016.7
20260503000720 53 236 6.0 10.0 0.00 0.00 0.00 61 1016.7
20260503000207 54 230 6.0 11.0 0.00 0.00 0.00 60 1016.7
20260502235709 54 238 7.0 11.0 0.00 0.00 0.00 60 1016.8
20260502235205 53 219 7.0 11.0 0.00 0.00 0.00 61 1016.8
20260502234719 53 246 7.0 10.0 0.00 0.00 0.00 61 1016.9
20260502234209 53 240 7.0 11.0 0.00 0.00 0.00 61 1017.0
20260502233706 53 239 7.0 11.0 0.00 0.00 0.00 61 1017.0
20260502233213 53 238 7.0 12.0 0.00 0.00 0.00 61 1017.0
20260502232717 53 238 8.0 12.0 0.00 0.00 0.00 60 1017.0
20260502232213 53 236 7.0 12.0 0.00 0.00 0.00 60 1017.0
20260502231718 53 232 7.0 9.0 0.00 0.00 0.00 61 1017.1